TimeEDT,TemperatureF,Dew PointF,Humidity,Sea Level PressureIn,VisibilityMPH,Wind Direction,Wind SpeedMPH,Gust SpeedMPH,PrecipitationIn,Events,Conditions,WindDirDegrees,DateUTC
12:02 AM,71.6,69.8,94,29.97,0.2,NW,3.5,-,N/A,Fog,Fog,310,2013-08-29 04:02:00
12:15 AM,69.8,69.8,100,29.98,0.8,Calm,Calm,-,N/A,,Mist,0,2013-08-29 04:15:00
12:22 AM,69.8,69.8,100,29.97,2.0,Calm,Calm,-,N/A,,Overcast,0,2013-08-29 04:22:00
12:32 AM,69.8,68.0,94,29.98,3.0,Calm,Calm,-,N/A,,Overcast,0,2013-08-29 04:32:00
12:49 AM,69.8,69.8,100,29.98,1.8,North,3.5,-,N/A,,Overcast,350,2013-08-29 04:49:00
12:54 AM,70.0,69.1,97,30.00,1.2,NNW,4.6,-,N/A,,Overcast,340,2013-08-29 04:54:00
1:08 AM,69.8,68.0,94,29.99,0.5,Calm,Calm,-,N/A,Fog,Fog,0,2013-08-29 05:08:00
1:29 AM,69.8,68.0,94,29.99,0.2,Calm,Calm,-,N/A,Fog,Fog,0,2013-08-29 05:29:00
1:54 AM,69.1,68.0,96,30.00,0.2,Calm,Calm,-,N/A,Fog,Fog,0,2013-08-29 05:54:00
2:05 AM,69.8,68.0,94,29.99,0.5,Calm,Calm,-,N/A,Fog,Fog,0,2013-08-29 06:05:00
2:54 AM,68.0,66.9,96,30.01,0.8,Calm,Calm,-,N/A,,Mist,0,2013-08-29 06:54:00
3:29 AM,68.0,66.2,94,29.99,0.2,Calm,Calm,-,N/A,Fog,Fog,0,2013-08-29 07:29:00
3:54 AM,68.0,68.0,100,30.01,0.2,Calm,Calm,-,N/A,Fog,Fog,0,2013-08-29 07:54:00
4:06 AM,68.0,66.2,94,30.00,0.5,Calm,Calm,-,N/A,Fog,Fog,0,2013-08-29 08:06:00
4:30 AM,68.0,66.2,94,30.00,1.0,Calm,Calm,-,N/A,,Mist,0,2013-08-29 08:30:00
4:38 AM,68.0,66.2,94,30.00,0.8,Calm,Calm,-,N/A,,Mist,0,2013-08-29 08:38:00
4:47 AM,68.0,66.2,94,30.01,1.5,Calm,Calm,-,N/A,,Overcast,0,2013-08-29 08:47:00
4:54 AM,68.0,66.9,96,30.02,1.8,Calm,Calm,-,N/A,,Overcast,0,2013-08-29 08:54:00
5:20 AM,68.0,66.2,94,30.01,0.8,Calm,Calm,-,N/A,,Mist,0,2013-08-29 09:20:00
5:54 AM,68.0,66.9,96,30.03,1.5,Calm,Calm,-,N/A,,Overcast,0,2013-08-29 09:54:00
6:00 AM,68.0,66.2,94,30.02,3.0,Calm,Calm,-,N/A,,Overcast,0,2013-08-29 10:00:00
6:21 AM,68.0,66.2,94,30.02,2.5,Calm,Calm,-,N/A,,Overcast,0,2013-08-29 10:21:00
6:35 AM,68.0,66.2,94,30.03,3.0,Calm,Calm,-,N/A,,Overcast,0,2013-08-29 10:35:00
6:54 AM,68.0,66.0,93,30.05,3.0,Calm,Calm,-,N/A,,Overcast,0,2013-08-29 10:54:00
7:32 AM,68.0,66.2,94,30.05,8.0,Calm,Calm,-,N/A,,Overcast,0,2013-08-29 11:32:00
7:44 AM,68.0,66.2,94,30.05,7.0,Calm,Calm,-,N/A,,Overcast,0,2013-08-29 11:44:00
7:54 AM,68.0,66.0,93,30.07,9.0,Calm,Calm,-,N/A,,Overcast,0,2013-08-29 11:54:00
8:20 AM,69.8,66.2,88,30.06,8.0,SSE,3.5,-,N/A,,Overcast,150,2013-08-29 12:20:00
8:54 AM,70.0,66.9,90,30.08,9.0,Calm,Calm,-,N/A,,Overcast,0,2013-08-29 12:54:00
9:02 AM,69.8,66.2,88,30.06,9.0,Calm,Calm,-,N/A,,Overcast,0,2013-08-29 13:02:00
9:14 AM,69.8,66.2,88,30.06,10.0,Calm,Calm,-,N/A,,Overcast,0,2013-08-29 13:14:00
9:54 AM,73.0,66.9,81,30.09,10.0,Calm,Calm,-,N/A,,Overcast,0,2013-08-29 13:54:00
10:54 AM,75.0,69.1,82,30.09,9.0,Variable,4.6,-,N/A,,Overcast,0,2013-08-29 14:54:00
11:23 AM,77.0,69.8,78,30.07,9.0,Calm,Calm,-,N/A,,Scattered Clouds,0,2013-08-29 15:23:00
11:54 AM,78.1,69.1,74,30.08,10.0,NW,4.6,-,N/A,,Partly Cloudy,320,2013-08-29 15:54:00
12:54 PM,81.0,69.1,67,30.08,10.0,NW,9.2,-,N/A,,Clear,320,2013-08-29 16:54:00
1:54 PM,82.9,66.9,58,30.07,10.0,NW,9.2,-,N/A,,Partly Cloudy,320,2013-08-29 17:54:00
2:54 PM,84.0,66.0,55,30.05,10.0,Variable,4.6,-,N/A,,Partly Cloudy,0,2013-08-29 18:54:00
3:54 PM,84.0,64.9,53,30.04,10.0,Variable,3.5,-,N/A,,Clear,0,2013-08-29 19:54:00
4:54 PM,84.0,66.0,55,30.05,10.0,NW,9.2,-,N/A,,Partly Cloudy,320,2013-08-29 20:54:00
5:54 PM,84.0,64.0,51,30.05,10.0,North,6.9,-,N/A,,Clear,10,2013-08-29 21:54:00
6:54 PM,81.0,66.0,60,30.05,10.0,North,6.9,-,N/A,,Clear,350,2013-08-29 22:54:00
7:54 PM,77.0,66.9,71,30.05,10.0,Calm,Calm,-,N/A,,Clear,0,2013-08-29 23:54:00
8:54 PM,73.0,66.9,81,30.06,10.0,Calm,Calm,-,N/A,,Clear,0,2013-08-30 00:54:00
9:54 PM,70.0,66.0,87,30.08,10.0,South,3.5,-,N/A,,Clear,180,2013-08-30 01:54:00
10:54 PM,66.9,64.9,93,30.08,10.0,SE,3.5,-,N/A,,Clear,140,2013-08-30 02:54:00
11:54 PM,66.9,64.0,90,30.08,10.0,SSE,3.5,-,N/A,,Clear,160,2013-08-30 03:54:00